QPF
0.03 0.04 0.04 0.05 0.10 0.11 0.12 0.10 0.06 0.07 0.09 0.12 0.14 0.20 0.29 0.25 0.18 0.15 0.12 0.09 0.06 0.03 0.02 0.01 0.00 0.00 0.00 0.00 0.00 0.00 0.00 0.00 0.00 0.00 0.00 0.00 0.00 0.00 0.00 0.00 0.00 0.00 0.00
0.02 0.02 0.06 0.13 0.16 0.20 0.24 0.21 0.17 0.18 0.20 0.26 0.34 0.32 0.26 0.19 0.15 0.11 0.08 0.05 0.03 0.02 0.01 0.00 0.00 0.00 0.00 0.00 0.00 0.00 0.00 0.00 0.00 0.00 0.00 0.00 0.00 0.00 0.00 0.00 0.00 0.00 0.00
0.03 0.03 0.07 0.17 0.31 0.34 0.28 0.21 0.22 0.27 0.36 0.38 0.31 0.23 0.18 0.13 0.10 0.07 0.04 0.02 0.02 0.01 0.00 0.00 0.00 0.00 0.00 0.00 0.00 0.00 0.00 0.00 0.00 0.00 0.00 0.00 0.00 0.00 0.00 0.00 0.00 0.00 0.00
0.08 0.06 0.10 0.19 0.28 0.34 0.33 0.29 0.37 0.43 0.38 0.31 0.23 0.16 0.11 0.08 0.05 0.03 0.02 0.01 0.00 0.00 0.00 0.00 0.00 0.00 0.00 0.00 0.00 0.00 0.00 0.00 0.00 0.00 0.00 0.00 0.00 0.00 0.00 0.00 0.00 0.00 0.00
0.12 0.23 0.22 0.20 0.27 0.33 0.43 0.45 0.39 0.27 0.21 0.17 0.11 0.08 0.05 0.03 0.02 0.01 0.00 0.00 0.00 0.00 0.00 0.00 0.00 0.00 0.00 0.00 0.00 0.00 0.00 0.00 0.00 0.00 0.00 0.00 0.00 0.00 0.00 0.00 0.00 0.00 0.00
0.19 0.25 0.26 0.38 0.41 0.46 0.46 0.37 0.25 0.17 0.11 0.07 0.05 0.04 0.03 0.02 0.01 0.00 0.00 0.00 0.00 0.00 0.00 0.00 0.00 0.00 0.00 0.00 0.00 0.00 0.00 0.00 0.00 0.00 0.00 0.00 0.00 0.00 0.00 0.00 0.00 0.00 0.00
0.19 0.31 0.43 0.50 0.48 0.42 0.30 0.21 0.13 0.07 0.05 0.04 0.03 0.02 0.01 0.00 0.00 0.00 0.00 0.00 0.00 0.00 0.00 0.00 0.00 0.00 0.00 0.00 0.00 0.00 0.00 0.00 0.00 0.00 0.00 0.00 0.01 0.01 0.01 0.01 0.00 0.00 0.00
0.32 0.37 0.41 0.41 0.28 0.17 0.12 0.07 0.04 0.03 0.01 0.00 0.00 0.00 0.00 0.00 0.00 0.00 0.00 0.00 0.00 0.00 0.00 0.00 0.00 0.00 0.00 0.00 0.00 0.00 0.00 0.00 0.00 0.00 0.00 0.00 0.01 0.00 0.00 0.00 0.00 0.00 0.00
0.31 0.29 0.19 0.10 0.07 0.07 0.06 0.04 0.02 0.00 0.00 0.00 0.00 0.00 0.00 0.00 0.00 0.00 0.00 0.00 0.00 0.00 0.00 0.00 0.00 0.00 0.00 0.01 0.00 0.00 0.00 0.00 0.00 0.00 0.00 0.00 0.00 0.00 0.00 0.00 0.00 0.00 0.00
0.16 0.09 0.06 0.06 0.05 0.04 0.02 0.00 0.00 0.00 0.00 0.00 0.00 0.00 0.00 0.00 0.00 0.00 0.00 0.00 0.00 0.00 0.00 0.00 0.00 0.00 0.00 0.00 0.01 0.00 0.00 0.00 0.00 0.00 0.00 0.00 0.00 0.00 0.00 0.00 0.00 0.00 0.00
0.05 0.06 0.04 0.02 0.00 0.00 0.00 0.00 0.00 0.00 0.00 0.00 0.00 0.00 0.00 0.00 0.00 0.00 0.00 0.00 0.00 0.00 0.00 0.00 0.00 0.00 0.00 0.00 0.00 0.00 0.00 0.01 0.00 0.00 0.00 0.00 0.00 0.00 0.00 0.00 0.00 0.00 0.00
0.00 0.00 0.00 0.00 0.00 0.00 0.00 0.00 0.00 0.00 0.00 0.00 0.00 0.00 0.00 0.00 0.00 0.00 0.00 0.00 0.00 0.00 0.00 0.00 0.00 0.00 0.00 0.00 0.00 0.00 0.00 0.00 0.00 0.00 0.00 0.00 0.00 0.00 0.00 0.00 0.00 0.00 0.00
0.00 0.00 0.00 0.00 0.00 0.00 0.00 0.00 0.00 0.00 0.00 0.00 0.00 0.00 0.00 0.00 0.00 0.00 0.00 0.00 0.00 0.00 0.00 0.00 0.00 0.00 0.00 0.00 0.00 0.00 0.00 0.00 0.00 0.00 0.00 0.00 0.00 0.00 0.00 0.00 0.00 0.00 0.00
0.00 0.00 0.00 0.00 0.00 0.00 0.00 0.00 0.00 0.00 0.00 0.00 0.00 0.00 0.00 0.00 0.00 0.00 0.00 0.00 0.00 0.00 0.00 0.00 0.00 0.00 0.00 0.00 0.00 0.00 0.00 0.00 0.00 0.00 0.00 0.00 0.00 0.00 0.00 0.00 0.00 0.00 0.00
0.00 0.00 0.00 0.00 0.00 0.00 0.00 0.00 0.00 0.00 0.00 0.00 0.00 0.00 0.00 0.00 0.00 0.00 0.00 0.00 0.00 0.00 0.00 0.00 0.00 0.00 0.00 0.00 0.00 0.00 0.00 0.00 0.00 0.00 0.00 0.00 0.00 0.00 0.00 0.00 0.00 0.00 0.00
0.00 0.00 0.00 0.00 0.00 0.00 0.00 0.00 0.00 0.00 0.00 0.00 0.00 0.00 0.00 0.00 0.00 0.00 0.00 0.00 0.00 0.00 0.00 0.00 0.00 0.00 0.00 0.00 0.00 0.00 0.00 0.00 0.00 0.00 0.00 0.00 0.00 0.00 0.00 0.00 0.00 0.00 0.00
0.00 0.00 0.00 0.00 0.00 0.00 0.00 0.00 0.00 0.00 0.00 0.00 0.00 0.00 0.00 0.00 0.00 0.00 0.00 0.00 0.00 0.00 0.00 0.00 0.00 0.00 0.00 0.00 0.00 0.00 0.00 0.00 0.00 0.00 0.00 0.00 0.00 0.00 0.00 0.00 0.00 0.00 0.00
0.00 0.00 0.00 0.00 0.00 0.00 0.00 0.00 0.00 0.00 0.00 0.00 0.00 0.00 0.00 0.00 0.00 0.00 0.00 0.00 0.00 0.00 0.00 0.00 0.00 0.00 0.00 0.00 0.00 0.00 0.00 0.00 0.00 0.00 0.00 0.00 0.00 0.00 0.00 0.00 0.00 0.00 0.00
0.00 0.00 0.00 0.00 0.00 0.00 0.00 0.00 0.00 0.00 0.00 0.00 0.00 0.00 0.00 0.00 0.00 0.00 0.00 0.00 0.00 0.00 0.00 0.00 0.00 0.00 0.00 0.00 0.00 0.00 0.00 0.00 0.00 0.00 0.00 0.00 0.00 0.00 0.00 0.00 0.00 0.00 0.00
0.00 0.00 0.00 0.00 0.00 0.00 0.00 0.00 0.00 0.00 0.00 0.00 0.00 0.00 0.00 0.00 0.00 0.00 0.00 0.00 0.00 0.00 0.00 0.00 0.00 0.00 0.00 0.00 0.00 0.00 0.00 0.00 0.00 0.00 0.00 0.00 0.00 0.00 0.00 0.00 0.00 0.00 0.00
0.00 0.00 0.00 0.00 0.00 0.00 0.00 0.00 0.00 0.00 0.00 0.00 0.00 0.00 0.00 0.00 0.00 0.00 0.00 0.00 0.00 0.00 0.00 0.00 0.00 0.00 0.00 0.00 0.00 0.00 0.00 0.00 0.00 0.00 0.00 0.00 0.00 0.00 0.00 0.00 0.00 0.00 0.00
0.00 0.00 0.00 0.00 0.00 0.00 0.00 0.00 0.00 0.00 0.00 0.00 0.00 0.00 0.00 0.00 0.00 0.00 0.00 0.00 0.00 0.00 0.00 0.00 0.00 0.00 0.00 0.00 0.00 0.00 0.00 0.00 0.00 0.00 0.00 0.00 0.00 0.00 0.00 0.00 0.00 0.00 0.00
0.00 0.00 0.00 0.00 0.00 0.00 0.00 0.00 0.00 0.00 0.00 0.00 0.00 0.00 0.00 0.00 0.00 0.00 0.00 0.00 0.00 0.00 0.00 0.00 0.00 0.00 0.00 0.00 0.00 0.00 0.00 0.00 0.00 0.00 0.00 0.00 0.00 0.00 0.00 0.00 0.00 0.00 0.00
0.00 0.00 0.00 0.00 0.00 0.00 0.00 0.00 0.00 0.00 0.00 0.00 0.00 0.00 0.00 0.00 0.00 0.00 0.00 0.00 0.00 0.00 0.00 0.00 0.00 0.00 0.00 0.00 0.00 0.00 0.00 0.00 0.00 0.00 0.00 0.00 0.00 0.00 0.00 0.00 0.00 0.00 0.00
0.00 0.00 0.00 0.00 0.00 0.00 0.00 0.00 0.00 0.00 0.00 0.00 0.00 0.00 0.00 0.00 0.00 0.00 0.00 0.00 0.00 0.00 0.00 0.00 0.00 0.00 0.00 0.00 0.00 0.00 0.00 0.00 0.00 0.00 0.00 0.00 0.00 0.00 0.00 0.00 0.00 0.00 0.00
0.00 0.00 0.00 0.00 0.00 0.00 0.00 0.00 0.00 0.00 0.00 0.00 0.00 0.00 0.00 0.00 0.00 0.00 0.00 0.00 0.00 0.00 0.00 0.00 0.00 0.00 0.00 0.00 0.00 0.00 0.00 0.00 0.00 0.01 0.01 0.02 0.01 0.00 0.00 0.00 0.00 0.00 0.00
MSLP
1006.97 1008.34 1009.69 1011.19 1012.45 1013.71 1014.97 1016.60 1017.86 1019.20 1020.56 1022.22 1023.12 1023.97 1024.44 1025.08 1025.85 1026.85 1027.29 1027.44 1028.07 1028.39 1028.64 1028.68 1029.13 1029.40 1029.65 1029.90 1030.00 1030.22 1030.37 1030.37 1030.57 1030.64 1030.67 1030.66 1030.78 1030.75 1030.49 1030.37 1030.05 1029.67 1029.44
1007.67 1009.05 1010.66 1012.05 1013.49 1014.37 1015.54 1016.78 1018.65 1019.88 1021.18 1022.50 1023.49 1024.52 1025.35 1025.77 1026.81 1027.15 1027.48 1028.18 1028.39 1028.68 1028.88 1029.16 1029.54 1029.91 1030.14 1030.43 1030.67 1030.77 1030.97 1031.01 1031.02 1030.95 1030.73 1030.73 1030.72 1030.70 1030.62 1030.39 1030.00 1029.70 1029.47
1008.79 1010.04 1011.67 1013.27 1014.41 1015.73 1016.22 1017.54 1019.10 1020.54 1022.16 1022.72 1023.87 1025.11 1025.57 1026.16 1026.89 1027.18 1027.65 1028.34 1028.73 1029.10 1029.43 1029.76 1030.17 1030.26 1030.69 1031.04 1031.17 1031.31 1031.45 1031.39 1031.25 1031.14 1030.92 1030.83 1030.75 1030.67 1030.54 1030.25 1029.99 1029.54 1029.36
1009.85 1011.37 1012.59 1014.27 1015.51 1016.38 1017.94 1018.62 1019.48 1021.25 1023.23 1024.20 1024.45 1025.41 1025.98 1026.47 1027.01 1027.58 1028.18 1028.60 1029.05 1029.34 1029.79 1030.24 1030.67 1030.81 1031.08 1031.27 1031.19 1031.36 1031.45 1031.30 1031.22 1031.30 1031.17 1030.99 1031.05 1030.70 1030.58 1030.26 1029.59 1029.51 1029.19
1010.76 1012.61 1013.76 1015.08 1016.17 1017.18 1019.13 1020.37 1021.19 1022.27 1023.80 1025.21 1024.99 1025.77 1026.05 1026.82 1027.57 1027.87 1028.37 1029.01 1029.57 1029.88 1030.18 1030.66 1031.00 1031.07 1031.00 1031.17 1030.98 1031.14 1031.29 1031.35 1031.38 1031.35 1031.16 1031.06 1030.99 1030.57 1030.39 1030.16 1029.78 1029.26 1028.79
1012.34 1013.36 1014.68 1016.30 1017.28 1018.45 1020.05 1021.70 1021.98 1023.45 1024.40 1025.18 1025.40 1025.58 1026.04 1027.16 1027.79 1028.14 1028.75 1029.38 1029.68 1030.00 1030.49 1030.86 1031.07 1031.17 1031.09 1031.12 1031.01 1031.08 1031.19 1031.10 1031.29 1031.30 1031.26 1031.16 1030.85 1030.61 1030.33 1030.14 1029.60 1029.30 1028.50
1013.65 1014.75 1016.38 1017.65 1018.54 1019.75 1021.12 1021.93 1023.13 1024.40 1025.07 1025.61 1025.99 1026.29 1026.67 1027.34 1028.13 1028.54 1028.90 1029.69 1029.96 1030.35 1030.63 1030.71 1030.94 1031.33 1031.43 1031.43 1031.36 1031.34 1031.49 1031.27 1031.13 1031.21 1031.21 1031.25 1030.82 1030.69 1030.37 1029.79 1029.63 1029.60 1029.34
1015.20 1016.33 1017.88 1018.88 1019.88 1021.13 1022.22 1022.90 1024.31 1025.04 1026.07 1026.71 1026.75 1027.30 1027.58 1027.90 1028.42 1028.79 1029.45 1029.89 1030.31 1030.59 1030.72 1030.89 1031.23 1031.39 1031.39 1031.38 1031.62 1031.48 1031.50 1031.59 1031.44 1030.95 1031.29 1031.21 1030.83 1030.52 1030.07 1029.61 1029.66 1029.95 1029.58
1017.05 1018.20 1019.50 1020.43 1020.96 1022.13 1022.96 1023.71 1024.69 1025.76 1026.71 1027.15 1027.81 1028.34 1028.29 1028.31 1028.52 1029.14 1029.63 1030.22 1030.38 1030.63 1030.85 1031.23 1031.34 1031.60 1031.29 1031.48 1031.41 1031.35 1031.73 1031.41 1031.10 1031.14 1031.33 1031.26 1030.92 1030.44 1030.00 1029.59 1030.27 1030.38 1029.54
1019.04 1020.08 1020.70 1021.20 1021.95 1023.25 1023.72 1024.48 1025.32 1026.12 1027.08 1028.45 1028.88 1028.86 1028.54 1028.92 1028.99 1029.38 1029.73 1030.13 1030.61 1031.03 1031.27 1031.41 1031.35 1031.55 1031.20 1031.06 1031.11 1031.86 1031.62 1031.56 1031.80 1032.07 1031.88 1031.50 1031.05 1030.77 1030.28 1030.33 1030.19 1030.24 1030.33
1020.94 1021.77 1022.09 1022.63 1022.94 1023.75 1024.46 1025.17 1026.23 1027.42 1028.36 1028.93 1028.98 1029.39 1029.44 1029.49 1029.60 1029.90 1030.35 1030.74 1030.93 1031.25 1031.60 1031.78 1031.87 1031.40 1031.31 1030.89 1030.87 1031.72 1031.05 1032.06 1032.10 1032.03 1031.59 1031.17 1031.00 1030.69 1030.47 1030.20 1030.05 1029.97 1029.82
1022.38 1022.65 1023.10 1023.77 1024.49 1024.74 1025.67 1026.75 1027.60 1028.28 1028.61 1029.10 1029.80 1030.23 1030.34 1030.49 1030.17 1030.28 1030.51 1030.70 1031.02 1031.58 1031.91 1032.14 1032.27 1031.60 1031.33 1031.18 1031.37 1030.94 1030.66 1031.59 1032.19 1031.84 1031.44 1030.91 1030.63 1030.24 1029.97 1029.85 1029.62 1029.37 1029.15
1023.20 1023.90 1024.39 1025.06 1025.56 1026.08 1026.68 1027.41 1028.00 1028.40 1029.05 1029.67 1030.28 1030.72 1031.02 1031.21 1031.48 1031.21 1031.21 1031.47 1031.65 1032.11 1032.16 1032.13 1032.01 1032.24 1032.01 1031.86 1031.52 1031.22 1031.87 1032.25 1032.09 1031.96 1031.33 1030.70 1030.23 1029.83 1029.53 1029.34 1029.11 1028.79 1028.58
1024.28 1024.93 1025.60 1026.17 1026.84 1026.96 1027.35 1027.64 1028.01 1028.61 1029.05 1029.83 1030.68 1031.17 1031.59 1031.82 1031.98 1032.32 1032.24 1032.51 1032.25 1032.44 1032.61 1033.13 1032.48 1032.19 1032.11 1032.04 1032.55 1032.14 1032.05 1032.09 1031.95 1031.61 1030.95 1030.39 1030.03 1029.98 1029.54 1029.09 1028.84 1028.54 1028.07
1025.46 1026.05 1026.63 1026.91 1027.31 1027.86 1028.18 1028.15 1028.30 1029.07 1029.36 1029.82 1030.56 1031.21 1031.83 1031.91 1031.83 1032.16 1032.48 1032.61 1032.92 1032.63 1033.79 1033.83 1033.14 1033.10 1033.23 1032.82 1032.43 1032.20 1032.26 1032.00 1031.76 1031.18 1030.65 1030.29 1029.94 1029.48 1028.98 1028.60 1028.41 1028.10 1027.84
1026.18 1026.87 1027.51 1027.78 1028.21 1028.40 1028.50 1028.81 1029.18 1029.40 1029.46 1029.89 1030.53 1031.23 1031.74 1031.24 1031.59 1032.03 1032.15 1031.83 1031.81 1031.89 1033.69 1034.36 1034.19 1033.70 1033.29 1033.00 1032.73 1032.34 1031.92 1031.58 1031.25 1030.83 1030.41 1030.02 1029.53 1029.01 1028.52 1028.10 1027.97 1027.71 1027.10
1026.75 1027.52 1028.17 1028.74 1029.23 1029.34 1029.55 1029.56 1029.42 1029.83 1029.88 1030.44 1030.95 1031.16 1031.39 1031.48 1031.96 1032.17 1032.04 1032.32 1032.26 1033.08 1034.32 1034.76 1034.37 1033.91 1033.45 1033.02 1032.59 1032.19 1031.58 1031.09 1030.91 1030.52 1030.09 1029.43 1028.88 1028.47 1028.26 1027.79 1027.38 1026.93 1026.13
1027.53 1028.08 1028.66 1029.19 1029.63 1029.95 1030.30 1030.83 1030.81 1031.08 1031.63 1031.97 1032.11 1032.10 1031.69 1031.71 1031.95 1032.07 1032.33 1033.29 1033.59 1033.89 1034.35 1034.74 1034.42 1033.80 1033.23 1032.62 1031.93 1031.41 1030.89 1030.60 1030.36 1029.92 1029.47 1028.91 1028.40 1028.12 1027.76 1027.30 1026.77 1026.07 1025.27
1028.00 1028.52 1028.85 1029.45 1029.98 1030.39 1030.81 1031.44 1032.28 1032.93 1033.21 1033.82 1033.80 1033.23 1033.34 1032.00 1032.06 1032.60 1033.12 1034.34 1035.16 1035.08 1034.58 1034.36 1033.79 1033.20 1032.57 1031.95 1031.33 1030.85 1030.55 1030.18 1029.78 1029.40 1028.84 1028.28 1027.77 1027.56 1027.10 1026.58 1025.92 1025.25 1024.61
1028.55 1028.91 1029.34 1030.02 1030.91 1031.23 1031.37 1032.13 1033.16 1033.81 1034.30 1034.70 1034.57 1034.19 1034.08 1034.11 1034.00 1034.07 1034.62 1035.02 1035.27 1034.99 1034.44 1033.90 1032.99 1032.39 1031.92 1031.45 1030.87 1030.37 1029.99 1029.60 1029.18 1028.68 1028.04 1027.50 1027.05 1026.86 1026.47 1025.89 1025.27 1024.50 1023.85
1029.20 1029.50 1029.90 1030.90 1031.59 1031.75 1032.18 1032.85 1033.24 1033.97 1034.58 1035.05 1034.96 1034.55 1034.59 1034.54 1034.88 1034.90 1034.86 1035.12 1035.07 1034.47 1033.76 1033.13 1032.41 1031.81 1031.26 1030.78 1030.21 1029.78 1029.35 1028.84 1028.33 1027.84 1027.27 1026.72 1026.26 1026.00 1025.60 1025.07 1024.35 1023.77 1022.98
1029.61 1030.13 1030.72 1031.55 1032.24 1032.81 1033.22 1033.41 1033.80 1034.24 1034.87 1035.39 1034.91 1034.90 1034.97 1034.78 1034.82 1034.81 1034.67 1034.45 1033.97 1033.59 1032.90 1032.53 1031.78 1031.07 1030.37 1029.99 1029.46 1029.02 1028.49 1027.93 1027.30 1026.82 1026.38 1025.93 1025.46 1025.03 1024.63 1024.13 1023.49 1022.85 1022.12
1029.67 1030.67 1031.37 1031.95 1032.52 1033.16 1033.80 1034.16 1034.38 1034.68 1034.98 1034.94 1034.97 1035.05 1035.13 1034.98 1034.76 1034.48 1034.32 1033.86 1033.15 1032.46 1031.82 1031.70 1031.08 1030.12 1029.44 1028.97 1028.52 1028.10 1027.63 1026.77 1026.17 1025.85 1025.51 1025.09 1024.56 1024.06 1023.62 1022.99 1022.34 1021.68 1021.03
1030.45 1030.88 1031.61 1032.51 1033.30 1033.80 1034.18 1034.61 1034.57 1034.47 1034.84 1035.19 1035.25 1035.24 1035.04 1034.79 1034.58 1034.31 1033.89 1033.14 1032.47 1031.85 1031.16 1030.63 1029.94 1029.21 1028.44 1027.80 1027.22 1026.75 1026.31 1025.61 1025.12 1024.76 1024.57 1024.11 1023.45 1022.75 1022.26 1021.67 1021.00 1020.32 1019.66
1031.11 1031.80 1032.19 1032.55 1033.07 1033.66 1034.23 1034.51 1034.62 1034.89 1035.01 1035.09 1034.99 1034.90 1034.71 1034.61 1034.32 1033.69 1032.92 1032.24 1031.75 1031.31 1030.35 1029.57 1028.84 1028.14 1027.58 1026.89 1026.24 1025.45 1024.74 1024.10 1023.75 1023.32 1023.13 1022.65 1021.91 1021.19 1020.72 1020.20 1019.43 1018.89 1018.24
1031.07 1031.55 1032.04 1032.50 1032.96 1033.30 1033.66 1034.12 1034.50 1034.76 1034.72 1034.57 1034.50 1034.50 1034.39 1034.12 1033.51 1032.81 1031.99 1031.42 1030.92 1030.26 1029.53 1028.61 1027.77 1027.07 1026.39 1025.71 1024.92 1024.15 1023.33 1022.55 1022.06 1021.35 1020.91 1020.62 1019.99 1019.45 1018.97 1018.49 1017.71 1017.31 1016.70
Thickness
5577 5572 5566 5559 5557 5554 5549 5537 5529 5522 5510 5498 5489 5482 5476 5467 5457 5447 5440 5436 5427 5420 5415 5412 5403 5397 5390 5382 5377 5371 5364 5357 5348 5339 5331 5324 5316 5309 5302 5294 5287 5279 5271
5559 5554 5548 5543 5538 5539 5536 5530 5514 5508 5497 5487 5476 5467 5458 5452 5442 5436 5430 5421 5415 5410 5404 5398 5391 5383 5377 5371 5364 5356 5349 5342 5336 5328 5320 5310 5303 5295 5286 5280 5271 5260 5250
5538 5536 5529 5525 5523 5521 5523 5513 5505 5493 5479 5475 5465 5452 5447 5440 5430 5425 5418 5410 5403 5396 5390 5383 5376 5373 5366 5356 5349 5342 5334 5327 5319 5312 5305 5297 5289 5281 5273 5263 5253 5244 5228
5520 5516 5515 5509 5508 5509 5500 5493 5492 5480 5462 5452 5450 5440 5433 5427 5420 5412 5406 5400 5394 5387 5379 5373 5366 5361 5354 5345 5339 5330 5321 5314 5307 5297 5289 5281 5270 5262 5254 5246 5241 5225 5214
5508 5502 5502 5498 5496 5495 5482 5474 5470 5462 5449 5436 5435 5426 5423 5415 5407 5404 5398 5389 5380 5375 5370 5363 5356 5349 5342 5334 5328 5319 5311 5302 5292 5283 5274 5263 5253 5247 5237 5229 5218 5208 5195
5493 5495 5489 5481 5481 5477 5467 5459 5457 5441 5434 5426 5422 5420 5416 5406 5397 5393 5385 5378 5376 5370 5361 5352 5347 5339 5331 5324 5317 5308 5299 5291 5280 5270 5259 5247 5238 5227 5215 5204 5194 5181 5176
5479 5479 5471 5468 5466 5462 5453 5448 5438 5428 5421 5416 5413 5411 5405 5397 5387 5385 5381 5371 5366 5358 5351 5345 5337 5327 5320 5312 5304 5294 5284 5275 5264 5251 5239 5225 5216 5204 5194 5184 5169 5154 5135
5465 5461 5455 5451 5447 5442 5435 5432 5420 5416 5409 5403 5404 5397 5392 5385 5380 5377 5367 5361 5354 5347 5341 5334 5326 5320 5312 5302 5290 5284 5273 5259 5246 5236 5218 5204 5192 5180 5169 5159 5144 5126 5108
5447 5444 5437 5434 5435 5428 5423 5419 5414 5406 5398 5398 5388 5382 5381 5379 5374 5365 5358 5350 5346 5339 5331 5323 5316 5307 5300 5293 5282 5270 5254 5244 5232 5215 5198 5184 5172 5161 5147 5135 5109 5086 5084
5428 5424 5425 5425 5423 5414 5415 5411 5404 5401 5393 5378 5375 5374 5376 5368 5364 5358 5351 5344 5337 5329 5322 5313 5304 5293 5286 5276 5267 5251 5241 5229 5213 5198 5184 5170 5156 5140 5121 5100 5084 5061 5042
5415 5411 5414 5413 5414 5410 5407 5404 5395 5385 5377 5372 5373 5366 5362 5360 5353 5347 5340 5334 5328 5319 5307 5298 5289 5281 5269 5261 5251 5235 5225 5209 5195 5180 5168 5156 5139 5121 5100 5080 5061 5045 5029
5403 5406 5407 5405 5402 5403 5395 5387 5379 5375 5373 5368 5359 5354 5352 5347 5344 5337 5330 5323 5314 5304 5294 5284 5272 5264 5254 5243 5233 5222 5211 5194 5179 5165 5152 5138 5121 5105 5086 5066 5048 5034 5022
5403 5400 5399 5395 5393 5389 5384 5378 5374 5371 5364 5359 5353 5347 5341 5335 5327 5322 5314 5307 5299 5288 5279 5269 5257 5244 5238 5230 5217 5204 5188 5175 5161 5146 5136 5123 5107 5090 5072 5057 5040 5027 5015
5398 5394 5390 5384 5377 5379 5376 5375 5371 5366 5362 5353 5344 5336 5327 5320 5314 5307 5301 5292 5282 5274 5265 5252 5243 5235 5225 5212 5196 5184 5171 5159 5146 5135 5125 5110 5092 5074 5056 5040 5030 5020 5012
5389 5383 5378 5377 5375 5370 5367 5368 5366 5357 5351 5344 5336 5326 5316 5307 5305 5296 5285 5275 5269 5258 5244 5239 5232 5220 5204 5195 5185 5172 5157 5144 5133 5122 5111 5096 5078 5062 5045 5032 5023 5015 5007
5382 5378 5373 5370 5366 5365 5363 5357 5348 5346 5344 5337 5328 5318 5310 5303 5292 5280 5272 5269 5259 5250 5238 5224 5213 5206 5198 5187 5175 5163 5149 5135 5123 5109 5094 5078 5064 5050 5038 5028 5019 5012 5009
5379 5373 5368 5361 5355 5355 5352 5349 5347 5338 5332 5322 5313 5304 5296 5288 5279 5272 5264 5254 5246 5235 5217 5206 5200 5194 5186 5175 5163 5151 5140 5128 5112 5096 5081 5068 5054 5041 5030 5024 5019 5014 5012
5369 5365 5360 5353 5349 5345 5341 5333 5332 5322 5308 5301 5296 5290 5287 5280 5271 5262 5250 5240 5225 5215 5204 5197 5191 5183 5174 5164 5154 5144 5132 5118 5103 5088 5072 5057 5044 5032 5025 5020 5016 5014 5011
5361 5356 5353 5346 5339 5334 5329 5320 5308 5299 5291 5282 5276 5277 5274 5269 5259 5247 5233 5218 5204 5200 5194 5187 5181 5174 5166 5156 5145 5133 5119 5106 5093 5078 5063 5049 5036 5025 5021 5017 5015 5011 5008
5351 5349 5345 5337 5326 5322 5319 5309 5297 5287 5278 5270 5265 5264 5260 5251 5238 5226 5216 5205 5194 5191 5187 5181 5176 5166 5155 5143 5133 5122 5109 5096 5083 5069 5056 5042 5029 5019 5016 5014 5011 5008 5005
5342 5340 5335 5324 5316 5312 5306 5298 5291 5281 5270 5260 5256 5252 5248 5237 5225 5214 5206 5196 5189 5184 5179 5172 5166 5156 5145 5133 5123 5111 5099 5087 5075 5063 5051 5036 5025 5017 5012 5009 5008 5004 5001
5336 5329 5322 5313 5303 5297 5290 5284 5277 5270 5261 5254 5248 5240 5237 5226 5215 5206 5198 5190 5183 5177 5173 5165 5156 5145 5135 5124 5115 5104 5092 5081 5070 5059 5046 5032 5020 5013 5010 5007 5004 5001 4997
5328 5318 5309 5301 5293 5286 5276 5269 5264 5256 5249 5242 5235 5228 5219 5211 5204 5198 5190 5181 5175 5169 5162 5155 5146 5138 5127 5117 5105 5094 5084 5075 5065 5053 5041 5028 5017 5011 5007 5005 5003 4999 4995
5314 5308 5299 5288 5279 5272 5265 5257 5250 5247 5238 5229 5220 5213 5207 5200 5193 5186 5180 5173 5166 5158 5152 5145 5137 5129 5121 5111 5100 5089 5078 5069 5058 5047 5034 5023 5015 5010 5006 5003 5000 4997 4994
5300 5291 5286 5280 5272 5263 5253 5245 5240 5232 5228 5218 5210 5203 5196 5188 5181 5176 5172 5165 5158 5151 5145 5138 5130 5123 5114 5104 5094 5085 5075 5065 5053 5042 5030 5021 5013 5009 5005 5001 5000 4997 4992
5291 5284 5276 5268 5261 5253 5247 5239 5231 5223 5217 5210 5202 5194 5186 5179 5174 5169 5165 5159 5153 5146 5138 5130 5124 5117 5108 5099 5089 5080 5072 5063 5052 5043 5035 5027 5019 5013 5007 5003 5001 4996 4992